Theta_e
310 310 311 311 312 312 312 312 313 313 313 313 313 313 312 312 312 312 312 312 313 315 315 315 315 316 316 317 318 317 312 312 313 313 315 315 314 315 316 316 316 317 317 317 317
311 311 311 312 312 312 313 313 313 313 313 313 313 314 313 314 313 313 314 313 312 314 315 315 315 316 316 317 318 315 308 310 310 311 313 314 314 316 315 315 315 316 317 317 317
312 312 312 313 313 313 313 313 313 314 314 314 314 314 314 314 314 312 314 313 313 313 314 314 314 316 316 316 317 314 313 310 313 314 316 315 314 317 313 311 316 317 317 317 316
313 313 313 313 313 313 313 313 314 314 314 314 314 315 315 315 312 313 313 314 313 313 314 313 314 316 314 314 316 315 315 314 315 317 316 314 315 314 315 317 318 318 317 317 317
312 312 312 311 311 311 311 311 311 311 312 312 313 313 314 313 315 315 315 314 313 313 314 313 314 314 313 312 313 313 314 316 317 316 316 316 314 312 315 317 317 317 316 316 316
308 308 309 309 310 311 312 313 313 313 312 310 309 308 309 310 314 315 314 314 313 314 314 314 313 314 314 314 313 313 313 313 314 315 315 313 314 313 315 315 315 315 315 315 315
311 311 312 312 313 313 314 314 314 314 315 315 314 310 308 310 312 312 313 314 313 313 314 314 313 313 313 312 313 313 311 308 309 312 310 312 311 309 314 314 314 314 314 314 315
312 312 313 314 315 316 318 318 317 317 315 311 313 311 310 315 313 310 310 311 312 312 312 312 312 312 313 312 311 310 309 309 309 309 311 312 310 311 313 313 314 315 316 316 317
314 317 319 320 321 321 321 321 321 320 319 312 310 310 311 314 313 312 310 312 312 312 311 311 311 312 311 308 307 306 308 307 307 309 309 310 309 309 312 313 313 314 314 315 315
321 321 322 322 322 322 321 321 320 315 313 310 309 309 311 313 313 312 313 312 312 311 311 311 311 308 306 307 308 308 306 306 306 308 307 308 308 308 312 310 311 312 312 313 314
322 322 322 322 322 322 322 322 318 316 312 312 313 313 314 313 312 313 313 312 312 311 308 310 307 308 309 307 308 307 306 305 305 307 307 309 308 308 309 310 310 311 311 311 312
321 322 322 322 323 322 322 321 316 314 311 319 319 316 317 313 313 313 312 312 311 309 307 307 307 307 307 306 307 307 308 308 308 308 307 307 309 309 309 309 310 311 311 312 312
324 324 324 323 323 322 321 320 315 311 311 316 315 312 313 311 310 311 311 311 309 307 307 308 309 308 308 308 307 306 307 308 307 306 306 306 309 308 308 308 310 310 312 312 312
321 323 323 323 322 321 320 320 314 313 311 311 308 309 309 309 308 309 310 311 308 309 307 307 307 308 307 308 307 309 306 307 307 308 309 308 312 308 309 308 307 310 312 314 314
323 324 324 322 322 322 321 320 316 313 321 313 308 310 311 309 309 309 309 310 308 307 306 308 307 308 308 309 307 309 308 308 308 307 307 306 308 310 307 307 308 307 311 314 314
323 323 323 323 322 322 322 321 317 318 325 315 308 309 309 309 308 308 309 309 308 307 306 307 307 307 307 307 306 307 309 306 304 305 309 308 308 315 308 308 309 307 312 313 315
320 320 322 322 322 322 321 321 321 322 316 315 309 309 308 307 309 306 307 307 308 311 308 306 307 307 307 309 307 308 308 310 309 309 313 306 308 313 309 308 307 309 310 313 314
321 320 319 321 321 321 321 319 321 318 315 312 311 309 311 309 310 307 306 307 305 307 305 310 315 307 305 308 309 306 308 311 313 313 315 305 307 313 308 307 309 309 311 312 312
315 314 316 316 317 319 319 320 318 318 315 316 315 315 314 310 311 309 306 306 307 306 311 307 309 307 305 306 307 307 308 308 310 308 309 311 308 309 312 312 309 307 308 310 310
311 311 310 313 312 314 316 319 317 316 314 313 317 316 315 313 311 309 309 307 308 304 306 309 311 307 306 305 305 306 306 309 306 311 313 310 311 312 311 311 310 307 308 311 311
307 306 308 309 309 313 314 314 315 316 316 316 317 317 316 316 312 313 316 311 307 309 304 307 310 313 307 305 310 306 306 306 307 311 315 316 314 311 312 311 309 307 308 309 310
303 304 305 307 311 311 310 310 312 312 313 313 314 315 316 315 315 315 315 315 312 310 313 310 312 314 312 310 307 307 310 310 312 315 312 312 313 311 310 311 310 310 309 309 309
303 304 304 311 309 310 309 309 310 310 311 312 312 311 312 314 314 313 313 312 310 310 312 311 311 314 314 310 307 309 309 309 310 311 312 314 313 310 309 309 309 309 305 304 302
300 300 304 307 307 308 308 308 308 309 310 311 311 311 311 312 311 312 310 310 306 307 308 309 310 313 313 313 310 311 310 307 307 309 312 312 312 310 310 303 301 300 301 298 297
298 299 300 303 304 305 306 306 306 306 308 308 308 309 309 310 310 310 309 303 302 303 302 305 307 308 307 303 303 304 303 303 302 302 304 304 304 306 298 296 296 297 296 295 295
296 297 297 298 298 299 301 303 304 305 306 306 306 300 300 303 301 300 297 299 298 297 296 297 298 299 298 299 299 298 296 296 297 298 299 302 305 295 294 293 293 294 293 292 291
293 294 295 295 296 297 297 298 296 297 297 297 295 296 296 298 295 294 294 295 295 295 294 295 294 287 297 296 293 292 294 295 296 297 295 299 294 293 293 292 291 293 292 291 290
Wind_Speed
6 7 7 8 9 9 9 10 10 10 10 10 11 12 13 14 15 15 17 10 8 9 10 7 6 6 5 4 4 4 3 2 5 4 5 2 2 2 3 6 7 9 17 17 14
7 8 8 9 9 9 10 10 11 11 12 13 13 14 15 16 19 21 9 8 8 7 10 9 9 7 4 4 4 4 4 9 7 5 5 5 5 9 3 8 11 17 22 24 25
9 9 10 11 12 12 12 12 13 13 13 14 14 15 16 17 19 1 2 6 3 6 10 10 8 7 3 4 6 6 6 5 6 14 12 7 8 15 5 7 23 19 24 22 24
11 12 12 13 14 15 15 15 16 16 16 15 15 17 17 15 6 1 7 15 11 8 12 11 9 7 5 5 8 3 13 11 7 9 6 6 10 7 13 34 36 33 27 31 31
13 13 14 14 15 16 17 17 18 18 18 18 18 18 18 10 18 22 19 14 10 9 13 13 12 7 5 5 3 5 6 15 21 19 19 22 25 12 23 44 41 35 34 35 34
14 14 14 15 15 16 17 18 19 19 19 18 17 18 17 10 14 12 12 12 11 11 14 16 8 12 6 6 6 3 8 14 17 21 19 11 26 3 30 37 36 32 33 34 33
12 13 13 14 15 16 17 18 19 19 19 19 18 17 20 30 21 21 21 18 14 13 15 14 17 10 2 3 6 5 7 9 9 13 8 8 11 10 34 29 33 34 32 29 28
10 9 10 12 13 14 16 18 18 18 18 18 18 17 15 21 20 21 22 24 17 13 12 11 10 14 8 4 4 3 1 5 2 6 3 10 11 22 20 19 23 27 28 28 31
8 7 9 11 12 14 15 17 18 17 16 15 14 12 11 16 13 16 18 16 13 12 9 5 8 6 2 4 4 4 5 6 11 16 5 7 8 13 14 8 19 40 44 45 43
7 6 8 11 13 15 16 17 17 14 10 7 11 5 15 9 7 8 8 11 7 7 6 7 5 2 2 4 6 7 5 6 6 7 3 6 14 12 39 21 33 39 44 49 52
9 8 9 11 13 15 15 17 7 6 5 8 6 11 15 11 10 8 7 12 8 6 5 3 3 8 16 11 2 2 5 7 8 12 6 18 19 17 25 27 31 38 41 40 48
12 12 10 12 13 14 13 8 8 9 13 20 26 31 35 19 7 11 9 9 7 6 6 4 6 14 4 4 7 8 10 14 11 16 4 14 24 20 17 22 35 34 39 45 41
15 15 15 13 14 12 9 9 10 13 6 13 16 14 13 15 13 19 14 7 4 6 7 8 6 4 5 4 9 5 7 13 11 7 6 10 14 7 7 20 33 36 43 42 42
21 20 19 15 12 4 4 7 10 15 3 6 3 2 3 5 3 7 18 8 3 8 6 6 3 5 4 8 8 10 12 14 9 4 4 5 17 5 8 9 6 30 35 37 41
23 20 18 10 7 6 6 8 11 8 6 2 2 1 3 4 4 1 11 7 6 6 6 8 6 5 5 9 7 11 3 4 2 4 6 3 3 4 5 6 14 10 25 23 29
12 9 11 11 13 10 7 6 8 1 8 3 0 0 1 2 1 4 4 3 2 4 2 7 1 5 8 6 8 2 3 5 4 2 5 9 6 31 4 6 3 5 15 27 25
11 10 11 13 13 11 7 1 2 5 5 3 1 1 2 4 2 5 4 4 6 3 5 2 5 4 4 3 1 3 4 4 4 1 10 7 6 26 8 11 8 14 21 20 25
10 13 16 13 17 13 10 2 8 4 6 3 1 1 5 6 5 3 3 4 6 1 2 3 17 7 5 8 9 7 9 5 7 12 18 5 8 18 11 14 22 20 20 19 12
13 14 14 11 10 9 6 7 6 5 5 4 2 5 5 3 4 3 6 5 6 11 7 4 10 2 5 2 5 4 5 5 5 3 3 12 16 16 27 25 14 12 7 13 13
17 17 21 14 11 10 4 15 5 5 1 1 7 6 3 1 1 2 5 3 4 8 4 4 13 5 2 1 4 7 1 2 1 4 17 10 19 16 19 18 14 7 11 19 22
16 9 11 10 14 11 9 8 8 20 17 6 9 11 11 11 8 4 4 5 2 0 6 1 4 16 3 8 17 2 4 4 3 6 10 12 9 15 22 19 13 10 4 15 24
11 2 5 17 10 7 12 10 5 18 10 5 2 5 16 16 17 15 20 12 1 4 12 9 5 12 30 21 3 5 8 9 9 9 12 19 21 17 15 19 20 28 28 29 30
6 5 6 17 5 10 7 5 12 18 18 4 11 11 4 14 15 15 11 6 7 1 2 2 4 4 4 7 2 4 4 11 20 21 26 22 15 7 11 14 23 26 30 29 32
5 2 6 18 17 4 8 15 16 17 14 14 12 15 15 19 16 7 6 2 8 3 4 3 5 10 14 15 10 17 8 10 11 10 14 15 17 13 17 14 19 30 25 25 28
4 2 3 3 5 9 8 10 16 11 5 5 3 8 10 10 11 13 13 5 2 3 4 2 7 6 11 11 10 16 21 22 24 25 25 26 27 16 10 13 16 14 22 27 31
4 2 1 4 6 3 3 5 17 17 10 12 8 6 3 4 1 4 3 1 2 4 5 3 4 8 13 20 17 18 23 29 27 29 27 21 16 7 9 16 24 16 21 27 30
7 7 1 3 2 2 2 2 4 4 9 8 7 5 5 2 1 8 12 13 10 8 9 3 3 1 17 20 9 12 17 18 13 7 4 5 5 9 7 14 17 18 14 25 28
Wind_Direction
326 330 334 335 335 334 335 337 338 337 336 336 336 335 333 330 323 312 302 283 266 242 235 236 223 222 202 199 196 160 65 250 252 199 258 295 332 282 266 257 247 235 248 266 272
304 309 311 311 310 312 314 316 318 320 321 323 324 325 326 327 320 313 303 277 252 244 233 237 227 212 187 196 196 149 145 222 212 208 246 296 250 284 256 257 258 261 269 272 269
289 294 298 300 301 301 301 302 303 304 306 309 312 314 318 327 323 341 86 19 16 241 229 225 219 204 214 207 203 185 211 211 257 250 273 279 275 274 200 259 257 264 294 290 279
286 290 292 293 295 296 296 297 295 295 295 296 300 304 308 315 306 272 301 307 301 245 224 215 198 182 195 212 209 227 248 233 253 260 268 257 282 251 229 265 283 287 283 279 277
279 282 284 287 289 292 294 294 292 291 289 289 289 290 294 284 267 287 286 284 278 252 228 222 206 198 200 210 205 212 239 255 264 275 279 280 266 251 267 281 285 284 279 276 274
284 286 287 289 291 295 297 295 293 291 289 286 285 284 284 259 275 280 276 273 267 252 232 222 221 230 257 223 187 264 266 276 284 270 262 234 272 246 269 284 289 285 283 283 279
283 287 290 292 294 299 302 299 299 296 290 284 279 277 273 265 272 270 269 270 266 259 250 238 225 212 216 270 251 284 313 309 235 262 231 218 290 224 279 290 292 292 293 290 287
283 290 293 299 305 311 312 309 307 302 294 282 273 270 262 275 266 262 261 263 255 247 241 244 231 240 245 284 322 320 188 322 298 145 253 162 259 281 291 288 292 301 299 296 294
286 293 301 310 316 321 321 319 315 308 295 278 262 245 262 266 271 264 253 250 250 237 216 204 188 211 221 100 5 350 247 233 308 204 164 189 255 268 313 277 293 289 288 286 286
282 294 307 315 322 326 331 330 317 303 292 264 241 245 248 260 278 264 243 218 209 189 163 181 186 123 76 115 224 235 229 251 247 293 171 240 252 275 283 287 277 278 280 281 282
282 290 301 309 320 327 332 343 336 301 301 262 267 244 279 281 256 263 230 197 183 171 170 171 129 199 227 198 148 192 232 248 258 267 311 275 269 265 268 279 271 272 272 276 275
277 283 291 301 313 327 336 6 339 303 296 276 265 255 256 250 249 238 204 181 171 185 112 48 222 229 79 149 222 246 270 272 284 269 246 274 280 276 254 253 259 267 275 274 280
275 282 289 296 302 314 334 346 339 331 272 279 255 258 260 254 243 249 204 193 164 167 190 199 227 193 191 242 249 204 225 259 252 315 255 296 279 227 265 242 255 265 266 278 281
277 281 287 293 295 289 327 337 343 340 311 273 250 228 207 201 230 224 195 204 184 211 180 235 270 224 145 225 203 262 232 251 269 353 255 48 300 184 227 244 224 251 267 278 288
270 264 267 279 265 296 326 332 346 351 303 257 208 201 183 194 135 143 191 195 180 180 130 245 170 161 183 221 148 235 194 246 167 200 304 160 240 209 164 238 246 251 259 295 298
258 271 264 267 280 280 279 301 336 4 247 308 144 342 160 212 193 128 170 178 112 167 231 247 317 193 215 220 189 58 61 45 42 104 283 177 168 285 153 206 256 243 297 304 297
262 273 275 278 273 261 232 191 284 224 345 294 273 171 263 210 227 174 160 183 187 185 215 215 215 240 189 254 88 140 81 306 320 83 244 162 179 258 260 269 227 275 280 287 289
224 248 257 264 264 256 183 112 235 181 245 313 269 18 217 172 239 168 129 241 226 254 89 207 288 187 171 200 205 191 170 191 243 269 275 145 237 261 241 259 266 275 272 290 312
266 268 255 249 263 269 218 238 245 179 195 247 306 253 229 246 235 188 206 245 219 178 210 200 261 231 185 228 173 196 184 211 261 266 286 270 272 298 278 276 296 262 286 330 331
266 268 268 258 255 245 253 255 234 199 166 231 229 204 216 174 255 214 195 210 245 183 99 294 298 197 213 120 210 192 268 274 351 234 254 233 252 260 289 307 312 294 330 342 332
265 274 260 241 232 207 235 252 255 244 242 217 252 255 259 274 224 236 275 277 224 107 172 12 259 276 184 193 245 215 223 217 271 226 252 257 241 257 270 290 301 310 291 305 317
242 193 234 196 182 215 234 233 196 260 237 282 244 265 269 276 275 268 264 246 283 109 278 256 259 265 270 266 200 182 237 247 249 247 251 264 259 256 285 299 308 308 317 318 325
194 227 203 188 214 223 250 262 250 256 261 256 270 277 278 268 280 246 249 270 255 16 251 118 223 271 300 280 86 208 247 246 261 265 255 258 268 256 305 313 309 322 8 8 1
176 206 205 209 234 242 251 257 257 257 250 239 254 266 272 272 262 266 265 296 339 288 297 282 235 241 261 277 324 288 304 319 310 290 296 283 304 321 305 349 348 342 10 13 12
176 222 198 218 232 256 247 274 282 278 244 317 275 260 282 268 274 271 279 341 280 17 28 12 271 283 289 292 294 300 292 286 277 279 273 286 287 312 22 345 343 357 13 11 3
188 213 275 307 293 320 216 251 254 274 269 271 269 7 357 255 331 342 20 221 251 343 8 342 284 333 289 289 295 290 284 277 275 276 277 285 284 18 27 5 3 14 5 357 350
214 228 216 249 181 138 227 330 46 3 47 78 47 358 311 268 224 263 247 231 244 258 260 234 221 129 275 289 314 289 260 260 265 339 341 295 8 329 2 346 338 316 339 343 341